This demonstration page uses our WeatherBlox Daily Observations layout. Learn more.

Left ArrowRight Arrow

Hourly Observations for December 14, 2015

Temp ( °F °C ) Dew Point ( °F °C ) Humidity (%) Winds ( mph kmh ) Pressure ( in mb ) Visibility ( mi km ) Precip ( " mm )
12:53 am 00:53 Clear 73 22.8 63 17.2 71 71 E 3 6 30.00 1016 10 16 0.00 0.00
1:53 am 01:53 Clear 73 22.8 61 16.1 66 66 Calm 29.99 1016 10 16 0.00 0.00
2:53 am 02:53 Mostly Cloudy 71 21.7 62 16.7 73 73 ENE 5 7 29.98 1015 10 16 0.00 0.00
3:53 am 03:53 Clear 72 22.2 63 17.2 73 73 E 3 6 29.97 1015 10 16 0.00 0.00
4:53 am 04:53 Clear 72 22.2 65 18.3 79 79 E 5 7 29.97 1015 10 16 0.00 0.00
5:53 am 05:53 Clear 71 21.7 65 18.3 81 81 ENE 6 9 29.98 1015 10 16 0.00 0.00
6:53 am 06:53 Sunny 70 21.1 64 17.8 82 82 ENE 5 7 29.98 1015 10 16 0.00 0.00
7:53 am 07:53 Sunny 74 23.3 64 17.8 71 71 E 3 6 30.00 1016 10 16 0.00 0.00
8:53 am 08:53 Mostly Sunny 79 26.1 69 20.6 72 72 NNW 3 6 30.01 1016 10 16 0.00 0.00
9:53 am 09:53 Sunny 79 26.1 70 21.1 74 74 W 7 11 29.99 1016 10 16 0.00 0.00
10:53 am 10:53 Sunny 81 27.2 70 21.1 69 69 NW 9 15 29.98 1015 10 16 0.00 0.00
11:53 am 11:53 Sunny 81 27.2 70 21.1 69 69 WNW 9 15 29.96 1015 10 16 0.00 0.00
12:53 pm 12:53 Mostly Sunny 81 27.2 69 20.6 67 67 W 9 15 29.93 1014 10 16 0.00 0.00
1:53 pm 13:53 Sunny 82 27.8 70 21.1 67 67 WSW 8 13 29.89 1012 10 16 0.00 0.00
2:53 pm 14:53 Sunny 81 27.2 70 21.1 69 69 SSW 10 17 29.88 1012 10 16 0.00 0.00
3:53 pm 15:53 Sunny 82 27.8 70 21.1 67 67 S 13 20 29.87 1012 10 16 0.00 0.00
4:53 pm 16:53 Mostly Cloudy 81 27.2 69 20.6 67 67 S 13 20 29.89 1012 10 16 0.00 0.00
5:53 pm 17:53 Cloudy 80 26.7 67 19.4 64 64 S 12 19 29.90 1013 10 16 0.00 0.00
6:53 pm 18:53 Cloudy 80 26.7 68 20 67 67 S 7 11 29.93 1014 10 16 0.00 0.00
7:53 pm 19:53 Mostly Clear 78 25.6 68 20 71 71 ESE 5 7 29.95 1014 10 16 0.00 0.00
8:53 pm 20:53 Clear 77 25 68 20 74 74 Calm 29.97 1015 10 16 0.00 0.00
9:53 pm 21:53 Clear 77 25 67 19.4 71 71 E 5 7 29.97 1015 10 16 0.00 0.00
10:53 pm 22:53 Clear 76 24.4 67 19.4 74 74 NE 3 6 29.97 1015 10 16 0.00 0.00
11:53 pm 23:53 Mostly Cloudy 74 23.3 64 17.8 71 71 ENE 5 7 29.97 1015 10 16 0.00 0.00

Powered by Vaisala Xweather